リニア彗星

C/1998 W3 ( LINEAR )

English version
Home page
Updated on November 20, 1999

---------------------------------------------------------------------

・ プロフィール

発見日 1998年11月25日
発見光度 18.4等
発見者 Lincoln Laboratory Near-Earth Asteroid Research project

・ 写真集

・ 軌道要素

   The following improved orbital elements by Kenji Muraoka, are
  from 141 observations 1998 Nov. 25 to 1999 Sept. 13, perturbations
  by 9 Planets, Moon and 5 minor planets were taken into account.
   The mean residual is +/- 0.54 arc seconds.

      Epoch  =  1998 Sept. 24.0  TT      JDT = 2451080.5
          T  =  1998 Oct.   6.73963      +/- 0.00919 (m.e.) TT
       Peri. =    6.88974                +/- 0.00101
       Node  =  123.91860                +/- 0.00076   (2000.0)
       Incl. =  129.19152                +/- 0.00078
          q  =    4.9145993              +/- 0.0000121 AU
          e  =    1.0012517              +/- 0.0000276
        1/a  =   -0.0002547              +/- 0.0000056 1/AU
  orig. 1/a  =   +0.000248
  fut.  1/a  =   +0.000065

・ 星図

・ 光度変化

        m1 = 6.5 + 5 logΔ + 10.0 log r

---------------------------------------------------------------------

軌道要素は村岡健治氏の計算によるものです。
星図は StellaNavigator Ver.2.0 for Windows (アストロアーツ 編著 / アスキー出版局刊) で作成したものです。
光度グラフはComet for Windowsで作成したものです。

---------------------------------------------------------------------

Copyright(C) Seiichi Yoshida (comet@aerith.net). All rights reserved.